Home   Weather   Odessa   Past weeks

Flag for USA Past Weather in Odessa, Texas, USA — Yesterday and Last 2 Weeks

Now
96 °F

Sunny.


Feels Like: 94 °F
Forecast: 75 / 96 °F
Wind: No wind

Location: Odessa-Schlemeyer Field

Current Time: Aug 16, 2017 at 6:54:30 pm

Latest Report: Aug 16, 2017 at 5:53 pm


Visibility: 10 mi

Pressure: 29.77 "Hg (27.00 "Hg at 882m altitude)

Humidity: 26%

Dew Point: 56 °F

Location of OdessaLocation

Past Weather in Odessa — Graph

°F

Odessa Temperature Yesterday

Maximum temperature yesterday: 85 °F (at 2:53 pm)
Minimum temperature yesterday: 72 °F (at 4:32 pm)
Average temperature yesterday: 79 °F

High & Low Weather Summary for the Past Weeks

 TemperatureHumidityPressure
High98 °F (Aug 13, 5:01 pm)97% (Aug 1, 9:18 pm)30.21 "Hg (Aug 1, 9:18 pm)
Low69 °F (Aug 2, 2:53 am)26% (Aug 6, 4:53 pm)29.68 "Hg (Aug 14, 6:53 pm)
Average80 °F64%29.93 "Hg
* Reported Aug 1 4:53 pm — Aug 16 4:53 pm, Odessa. Weather by CustomWeather, © 2017

Note: Actual official high and low records may vary slightly from our data, if they occured in-between our weather recording intervals... More about our weather records

Advertising

Odessa Weather History for the Previous 24 Hours

Scroll right to see more
 ConditionsComfort  
Time TempWeatherWind HumidityBarometerVisibility
4:53 pm
Wed, Aug 16
96 °FSunny.6 mph28%29.77 "Hg10 mi
3:53 pm95 °FSunny.No wind34%29.79 "Hg10 mi
2:53 pm93 °FSunny.6 mph38%29.81 "Hg10 mi
1:53 pm90 °FSunny.6 mph43%29.83 "Hg10 mi
12:53 pm89 °FSunny.7 mph45%29.84 "Hg10 mi
11:53 am86 °FSunny.9 mph55%29.84 "Hg10 mi
10:53 am82 °FSunny.9 mph65%29.84 "Hg10 mi
9:53 am79 °FSunny.9 mph69%29.82 "Hg10 mi
8:53 am75 °FSunny.10 mph79%29.83 "Hg10 mi
7:53 am71 °FSunny.7 mph87%29.82 "Hg10 mi
6:53 am71 °FClear.7 mph87%29.80 "Hg10 mi
5:53 am71 °FClear.7 mph87%29.79 "Hg10 mi
4:53 am72 °FClear.8 mph84%29.79 "Hg10 mi
3:53 am72 °FClear.7 mph84%29.77 "Hg10 mi
2:53 am72 °FClear.7 mph84%29.77 "Hg10 mi
1:53 am72 °FClear.10 mph84%29.77 "Hg10 mi
12:53 am73 °FClear.8 mph81%29.79 "Hg10 mi
11:53 pm
Tue, Aug 15
74 °FClear.13 mph76%29.81 "Hg10 mi
10:53 pm74 °FClear.12 mph79%29.80 "Hg10 mi
9:53 pm76 °FClear.13 mph85%29.78 "Hg10 mi
8:53 pm79 °FClear.12 mph82%29.75 "Hg10 mi
8:08 pm79 °FScattered clouds.10 mph84%29.88 "Hg10 mi
6:53 pm80 °FPassing clouds.15 mph81%29.73 "Hg10 mi
Weather by CustomWeather, © 2017

See weather overviewHow to use our weather pages